Location: Newark
(37.7892°N, 97.1083°W)
Time: 14:15:58
(UTC+00:00)

ISS - Pass Details

Date: 23 December 2019
Orbit: 415 x 421 km, 51.6° (Epoch: 21 January)

Event Time Altitude Azimuth Distance (km) Brightness Sun altitude
Exits shadow 12:57:07 - 252° (WSW) 1,827 -1.0 -8.6°
Reaches altitude 10° 12:58:00 10° 256° (WSW) 1,482 -1.5 -8.5°
Maximum altitude 13:01:07 37° 326° (NW) 661 -3.2 -7.9°
Drops below altitude 10° 13:04:16 10° 36° (NE) 1,489 -0.8 -7.3°
Sets 13:06:28 0° 45° (NE) 2,355 0.3 -6.9°
